Content
SEND FEEDBACK

Daily
Averages
Monthly
Summary
United States of America

NEW YORK - CENTRAL PARK, NEW YORK


Home > North America > United States > New York
Elevation: 14 feet     Latitude: 40 47N     Longitude: 073 58W

WEATHER
 
SELECT A DAY
Number of Records: 152,321;   Date Range: 11/1/95 - 11/27/14
 
SHARE

PRINT THIS DATA

[ ← Previous Day ]
WEATHER ALMANAC - JULY 12, 2014
[ Next Day → ]
[ °C ]   °F
Weather ElementAverageHighLow
Temperature76.6 °F84.2 °F (1:47 pm)71.1 °F (4:51 am)
Dewpoint60.2 °F64 °F (4:51 pm)55.9 °F (3:51 pm)
Humidity57.5 %73 % (2:51 am)42 % (4:51 pm)
Barometer30.19 in30.23 in (8:51 pm)30.13 in (7:51 am)
Wind Speed3.2 mph10.4 mph (4:51 pm)
Wind Gust19.6 mph (12:47 am)
Weather ElementAverage
Visibility9.8 mi
Wind DirectionNNE (33.3 °)

Weather ElementTotal
Precipitation---
Cooling Degree Days12.7 (Base 65)
Growing Degree Days27.7 (Base 50)
Averaged from 24 records on July 12, 2014
WEATHER CONDITIONS BREAKOUT
WIND DIRECTION BREAKOUT
WEATHER BY HOUR - JULY 12, 2014
[ °C ]   °F
Local TimeTemperatureDewpointHumidityBarometerVisibilityWind DirectionWind SpeedGust SpeedPrecipitationEventsConditions
12:51 AM72.0 °F61.0 °F68 %30.23 in10.0 miCalmClear
1:51 AM72.0 °F62.1 °F71 %30.23 in10.0 miCalmClear
2:51 AM72.0 °F61.0 °F68 %30.22 in10.0 miCalmMostly Cloudy
3:51 AM72.0 °F61.0 °F68 %30.21 in10.0 miCalmPartly Cloudy
4:51 AM72.0 °F61.0 °F68 %30.22 in10.0 miCalmMostly Cloudy
5:51 AM71.1 °F61.0 °F70 %30.23 in9.0 miCalmClear
6:51 AM73.0 °F64.0 °F73 %30.23 in8.0 miCalmClear
7:51 AM73.9 °F61.0 °F64 %30.23 in9.0 miWest (260°)4.6 mphClear
8:51 AM75.9 °F59.0 °F56 %30.23 in10.0 miVariable3.5 mphClear
9:51 AM78.1 °F62.1 °F58 %30.23 in10.0 miCalmClear
10:51 AM80.1 °F60.1 °F50 %30.22 in10.0 miVariable3.5 mphClear
11:51 AM81.0 °F62.1 °F52 %30.21 in10.0 miVariable3.5 mphClear
12:51 PM84.0 °F61.0 °F46 %30.19 in10.0 miCalmClear
1:51 PM84.2 °F62.6 °F48 %30.22 in10.0 miSouth (180°)10.4 mph19.6 mphScattered Clouds
2:51 PM82.9 °F62.1 °F49 %30.18 in10.0 miSouth (180°)10.4 mph18.4 mphClear
3:51 PM81.0 °F55.9 °F42 %30.17 in10.0 miNorthClear
4:51 PM80.1 °F57.9 °F47 %30.17 in10.0 miNorthClear
5:51 PM79.0 °F57.0 °F47 %30.15 in10.0 miVariable5.8 mphClear
6:51 PM78.1 °F57.0 °F48 %30.14 in10.0 miVariable4.6 mphClear
7:51 PM75.9 °F57.9 °F54 %30.14 in10.0 miVariable3.5 mphClear
8:51 PM75.0 °F61.0 °F62 %30.14 in10.0 miSouth (180°)6.9 mphClear
9:51 PM75.0 °F61.0 °F62 %30.14 in10.0 miVariable4.6 mphOvercast
10:51 PM75.0 °F57.0 °F53 %30.14 in10.0 miVariable4.6 mphOvercast
11:51 PM73.9 °F57.9 °F57 %30.13 in10.0 miVariable3.5 mphClear
Hourly data recorded from KNYC, located miles away from New York - Central Park, New York







STORIES FROM OUR PARTNERS